Date String (YYYY-MM-DD hh:mm:ss) UTC,Instrument flags,absolute air pressure of the measurement (hPa),sample flow rate (lpm),inlet stack bypass flow (lpm),air temperature of the measurement (°C),ambient temperature measured by the external sensor (°C),aerosol sample conditioner tube jacket temperature (°C),OPC LED temperature (°C),internal box temperature (°C),relative humidity of the measurement (%),span deviation,mass concentration of particles derived from Lorenz-Mie calculation of OPC scattering (μg/m³),mass concentration of particles derived from Lorenz-Mie calculation of OPC scattering (μg/m³),mass concentration of particles derived from Lorenz-Mie calculation of OPC scattering (μg/m³)
DateTimeUTC,F1_M11,P_M11,Q1_M11,Q2_M11,T1_M11,T2_M11,T3_M11,T4_M11,T5_M11,U1_M11,ZSPAN_M11,X0_M11,X2_M11,X1_M11
2023-09-24 06:00:00,SystemResetWarning,0832.0,5.00,000.00,028.4,027.0,000.0,036.7,030.0,11.8,0000.0,0016.20,0004.19,0003.23
2023-09-24 06:01:00,SystemResetWarning,0832.0,4.99,000.00,028.4,027.1,000.0,036.8,030.0,11.8,0000.0,0016.12,0004.20,0003.23
2023-09-24 06:02:00,SystemResetWarning,0832.0,5.00,000.00,028.5,027.1,000.0,036.8,030.1,11.8,0000.0,0015.68,0004.17,0003.22
2023-09-24 06:03:00,SystemResetWarning,0832.0,5.00,000.00,028.5,027.1,000.0,036.8,030.1,11.8,0000.0,0014.89,0004.17,0003.21
2023-09-24 06:04:00,SystemResetWarning,0832.0,5.00,000.00,028.5,027.1,000.0,036.8,030.1,11.8,0000.0,0015.01,0004.18,0003.20
2023-09-24 06:05:00,SystemResetWarning,0832.0,5.01,000.00,028.5,027.2,000.0,036.8,030.1,11.8,0000.0,0014.47,0004.17,0003.21
2023-09-24 06:06:00,SystemResetWarning,0832.0,5.01,000.00,028.5,027.2,000.0,036.8,030.1,11.7,0000.0,0012.82,0004.12,0003.21
2023-09-24 06:07:00,SystemResetWarning,0832.0,5.00,000.00,028.5,027.2,000.0,036.8,030.1,11.8,0000.0,0012.68,0004.09,0003.22
2023-09-24 06:08:00,SystemResetWarning,0832.0,4.99,000.00,028.5,027.2,000.0,036.8,030.2,11.8,0000.0,0012.31,0004.11,0003.23
2023-09-24 06:09:00,SystemResetWarning,0832.0,4.99,000.00,028.6,027.2,000.0,036.8,030.1,11.7,0000.0,0012.97,0004.14,0003.23
2023-09-24 06:10:00,SystemResetWarning,0831.9,5.00,000.00,028.6,027.2,000.0,036.8,030.2,11.6,0000.0,0012.34,0004.17,0003.24
2023-09-24 06:11:00,SystemResetWarning,0831.9,5.00,000.00,028.6,027.2,000.0,036.9,030.2,11.5,0000.0,0011.41,0004.14,0003.24
2023-09-24 06:12:00,SystemResetWarning,0832.0,5.00,000.00,028.6,027.2,000.0,036.9,030.2,11.6,0000.0,0010.64,0004.12,0003.24
2023-09-24 06:13:00,SystemResetWarning,0832.0,5.01,000.00,028.6,027.2,000.0,036.9,030.2,11.5,0000.0,0010.53,0004.11,0003.25
2023-09-24 06:14:00,SystemResetWarning,0832.0,4.99,000.00,028.6,027.3,000.0,036.9,030.2,11.4,0000.0,0011.00,0004.13,0003.26
2023-09-24 06:15:00,SystemResetWarning,0832.0,5.00,000.00,028.6,027.3,000.0,036.9,030.2,11.4,0000.0,0011.55,0004.15,0003.27
2023-09-24 06:16:00,SystemResetWarning,0832.0,5.00,000.00,028.6,027.3,000.0,036.9,030.2,11.4,0000.0,0012.65,0004.13,0003.28
2023-09-24 06:17:00,SystemResetWarning,0832.0,5.00,000.00,028.6,027.3,000.0,036.9,030.2,11.4,0000.0,0013.84,0004.21,0003.30
2023-09-24 06:18:00,SystemResetWarning,0831.9,5.00,000.00,028.6,027.3,000.0,036.9,030.2,11.4,0000.0,0014.71,0004.26,0003.30
2023-09-24 06:19:00,SystemResetWarning,0832.0,5.01,000.00,028.6,027.3,000.0,036.9,030.2,11.3,0000.0,0014.71,0004.31,0003.31
2023-09-24 06:20:00,SystemResetWarning,0831.9,4.99,000.00,028.7,027.3,000.0,036.9,030.2,11.4,0000.0,0014.47,0004.31,0003.31
2023-09-24 06:21:00,SystemResetWarning,0831.9,5.00,000.00,028.7,027.3,000.0,037.0,030.2,11.2,0000.0,0014.02,0004.27,0003.31
2023-09-24 06:22:00,SystemResetWarning,0831.9,5.01,000.00,028.7,027.3,000.0,037.0,030.2,11.2,0000.0,0014.73,0004.31,0003.32
2023-09-24 06:23:00,SystemResetWarning,0831.8,5.00,000.00,028.7,027.3,000.0,037.0,030.2,11.1,0000.0,0014.45,0004.33,0003.33
2023-09-24 06:24:00,SystemResetWarning,0831.9,5.01,000.00,028.7,027.3,000.0,037.0,030.2,11.2,0000.0,0014.97,0004.39,0003.34
2023-09-24 06:25:00,SystemResetWarning,0831.8,4.99,000.00,028.7,027.3,000.0,037.0,030.3,11.1,0000.0,0015.88,0004.45,0003.35
2023-09-24 06:26:00,SystemResetWarning,0831.8,4.99,000.00,028.7,027.3,000.0,037.0,030.3,11.1,0001.0,0015.40,0004.46,0003.36
2023-09-24 06:27:00,SystemResetWarning,0831.7,5.00,000.00,028.7,027.3,000.0,037.0,030.3,11.1,0002.0,0014.47,0004.46,0003.36
2023-09-24 06:28:00,SystemResetWarning,0831.8,5.01,000.00,028.7,027.3,000.0,037.0,030.3,11.1,0002.6,0013.74,0004.44,0003.36
2023-09-24 06:29:00,SystemResetWarning,0831.9,5.01,000.00,028.7,027.3,000.0,037.0,030.3,11.0,0002.7,0013.16,0004.44,0003.37
2023-09-24 06:30:00,SystemResetWarning,0832.1,4.99,000.00,028.7,027.3,000.0,037.0,030.3,11.0,0002.8,0014.52,0004.42,0003.37
2023-09-24 06:31:00,SystemResetWarning,0831.9,4.99,000.00,028.7,027.3,000.0,037.0,030.3,11.1,0002.9,0014.69,0004.43,0003.38
2023-09-24 06:32:00,SystemResetWarning,0831.7,5.02,000.00,028.7,027.3,000.0,037.1,030.3,11.1,0002.9,0014.58,0004.47,0003.40
2023-09-24 06:33:00,SystemResetWarning,0831.7,5.00,000.00,028.7,027.3,000.0,037.1,030.3,11.2,0002.5,0014.16,0004.51,0003.40
2023-09-24 06:34:00,SystemResetWarning,0831.8,4.99,000.00,028.7,027.3,000.0,037.1,030.3,11.2,0002.1,0014.47,0004.52,0003.41
2023-09-24 06:35:00,SystemResetWarning,0831.7,5.00,000.00,028.7,027.3,000.0,037.1,030.3,11.2,0002.0,0014.98,0004.52,0003.42
2023-09-24 06:36:00,SystemResetWarning,0831.7,5.00,000.00,028.7,027.3,000.0,037.1,030.3,11.3,0002.3,0014.92,0004.41,0003.41
2023-09-24 06:37:00,SystemResetWarning,0831.7,4.99,000.00,028.7,027.3,000.0,037.1,030.3,11.2,0002.9,0015.56,0004.39,0003.40
2023-09-24 06:38:00,SystemResetWarning,0831.7,5.00,000.00,028.8,027.3,000.0,037.1,030.3,11.3,0003.1,0015.56,0004.36,0003.40
2023-09-24 06:39:00,SystemResetWarning,0831.7,5.02,000.00,028.8,027.3,000.0,037.1,030.3,11.3,0002.4,0015.91,0004.39,0003.40
2023-09-24 06:40:00,SystemResetWarning,0831.8,5.00,000.00,028.8,027.3,000.0,037.1,030.3,11.3,0000.1,0015.90,0004.41,0003.40
2023-09-24 06:41:00,SystemResetWarning,0831.9,4.99,000.00,028.8,027.4,000.0,037.1,030.4,11.3,0000.0,0014.28,0004.35,0003.40
2023-09-24 06:42:00,SystemResetWarning,0832.0,4.99,000.00,028.8,027.4,000.0,037.1,030.4,11.3,0000.0,0014.38,0004.32,0003.39
2023-09-24 06:43:00,SystemResetWarning,0832.1,5.00,000.00,028.8,027.4,000.0,037.1,030.4,11.3,0000.0,0014.36,0004.28,0003.37
2023-09-24 06:44:00,SystemResetWarning,0831.7,5.00,000.00,028.8,027.4,000.0,037.1,030.4,11.3,0000.0,0014.13,0004.24,0003.37
2023-09-24 06:45:00,SystemResetWarning,0831.8,5.01,000.00,028.8,027.4,000.0,037.1,030.4,11.4,0000.0,0013.65,0004.20,0003.36
2023-09-24 06:46:00,SystemResetWarning,0831.8,4.99,000.00,028.8,027.4,000.0,037.1,030.4,11.4,0000.0,0013.31,0004.15,0003.34
2023-09-24 06:47:00,SystemResetWarning,0831.8,5.00,000.00,028.8,027.4,000.0,037.2,030.3,11.3,0000.2,0012.90,0004.15,0003.35
2023-09-24 06:48:00,SystemResetWarning,0831.8,5.00,000.00,028.8,027.4,000.0,037.2,030.4,11.3,0002.8,0011.96,0004.10,0003.34
2023-09-24 06:49:00,SystemResetWarning,0831.8,5.00,000.00,028.8,027.4,000.0,037.2,030.4,11.4,0002.6,0011.82,0004.12,0003.33
2023-09-24 06:50:00,SystemResetWarning,0831.8,5.00,000.00,028.8,027.4,000.0,037.2,030.4,11.4,0001.3,0011.57,0004.12,0003.33
2023-09-24 06:51:00,SystemResetWarning,0831.8,5.00,000.00,028.8,027.4,000.0,037.2,030.4,11.4,0002.9,0011.71,0004.10,0003.33
2023-09-24 06:52:00,SystemResetWarning,0832.1,5.01,000.00,028.8,027.4,000.0,037.2,030.4,11.4,0002.7,0012.39,0004.13,0003.33
2023-09-24 06:53:00,SystemResetWarning,0831.9,5.01,000.00,028.8,027.4,000.0,037.2,030.4,11.4,0002.7,0012.29,0004.13,0003.33
2023-09-24 06:54:00,SystemResetWarning,0831.9,5.00,000.00,028.8,027.4,000.0,037.2,030.4,11.3,0002.2,0012.29,0004.15,0003.33
2023-09-24 06:55:00,SystemResetWarning,0832.0,4.99,000.00,028.8,027.4,000.0,037.2,030.4,11.3,0002.3,0012.47,0004.16,0003.33
2023-09-24 06:56:00,SystemResetWarning,0831.8,5.00,000.00,028.8,027.4,000.0,037.2,030.4,11.3,0002.3,0012.96,0004.12,0003.32
2023-09-24 06:57:00,SystemResetWarning,0832.1,5.01,000.00,028.9,027.4,000.0,037.2,030.4,11.4,0002.2,0012.80,0004.10,0003.32
2023-09-24 06:58:00,SystemResetWarning,0832.3,5.01,000.00,028.9,027.4,000.0,037.2,030.4,11.4,0002.1,0012.67,0004.11,0003.31
2023-09-24 06:59:00,SystemResetWarning,0831.7,5.00,000.00,028.9,027.4,000.0,037.2,030.4,11.4,0000.0,0012.57,0004.15,0003.32
